Wind_Speed
67 64 63 61 61 61 61 60 51 49 48 46 45 49 48 48 51 49 45 39 38 34 32 30 28 28 26 25 24 23 23 22 20 19 19 22 18 16 19 15 16 17 16 17 18
70 68 65 64 63 62 60 58 58 54 49 47 48 49 51 48 44 44 39 38 36 33 31 29 26 27 26 26 25 23 23 24 23 23 20 22 22 20 15 20 17 18 18 19 20
71 70 69 66 65 63 61 59 55 54 51 50 51 51 49 48 44 42 39 36 34 32 29 27 26 25 26 25 24 24 23 23 25 24 23 21 23 22 18 19 22 20 20 21 21
71 71 70 69 67 65 63 61 60 56 54 53 50 50 48 47 45 41 39 37 35 32 31 28 27 26 27 26 26 25 24 24 25 26 25 25 26 25 21 21 24 24 22 23 24
71 73 72 70 70 67 65 63 60 57 58 56 56 53 50 48 46 44 41 39 36 35 34 31 30 29 29 28 28 28 27 26 25 26 26 26 26 24 21 26 24 25 26 25 26
76 73 74 74 72 71 70 67 65 62 61 58 57 54 52 50 49 48 45 42 41 38 37 33 30 29 28 27 29 30 31 29 26 27 28 27 28 25 25 26 27 26 27 28 28
78 77 75 75 75 74 72 71 68 67 64 60 60 58 55 53 53 50 48 47 45 42 38 37 35 33 33 32 31 33 34 32 28 30 30 28 30 24 27 26 29 28 28 29 31
78 79 79 78 77 77 75 73 72 70 69 66 64 62 58 57 55 53 52 49 47 45 42 42 40 39 37 38 39 38 35 32 33 34 31 30 34 27 27 28 29 30 30 31 30
87 79 75 78 79 79 79 77 75 74 72 70 68 66 63 60 59 56 54 52 50 49 47 45 43 41 40 41 40 40 37 38 38 36 30 30 35 28 29 29 33 33 32 31 32
93 91 83 80 80 79 80 80 79 77 75 74 71 70 67 66 64 60 58 55 52 49 45 45 42 40 43 46 42 37 40 40 40 39 30 30 35 32 30 31 35 36 34 33 33
94 97 93 87 85 85 80 81 81 81 78 77 75 71 70 70 66 65 63 60 56 54 50 44 41 45 51 46 44 43 42 41 46 41 32 32 31 36 32 34 35 37 38 38 35
96 94 96 98 89 81 84 83 79 83 83 80 77 73 73 73 70 68 66 64 62 59 53 51 45 55 52 50 46 45 44 46 50 46 37 37 32 35 37 37 39 40 42 40 36
97 98 97 100 98 94 89 82 90 84 82 84 81 77 77 75 72 70 68 66 63 59 58 57 56 59 55 56 53 50 49 53 52 50 41 37 30 34 41 42 44 43 43 40 38
105 101 103 102 105 102 99 97 91 90 89 79 83 79 78 77 73 72 68 66 63 64 66 59 57 59 60 57 60 54 57 56 56 54 44 39 27 31 44 47 51 50 41 41 40
110 108 108 106 105 106 107 102 97 94 99 88 85 77 78 79 73 75 74 72 68 71 70 60 62 61 59 60 66 60 64 63 61 57 39 36 34 29 42 51 57 54 46 42 42
112 115 111 110 110 108 107 107 104 103 105 94 90 85 80 80 77 76 79 76 73 73 69 62 60 61 60 63 67 65 66 67 66 61 39 39 34 21 41 51 58 56 47 44 44
109 113 113 113 110 113 112 108 113 114 104 96 94 92 89 87 84 84 82 81 78 76 72 73 66 65 67 66 67 66 69 72 71 64 47 43 27 24 39 45 53 57 52 49 48
110 115 115 116 118 120 117 116 118 111 109 100 95 95 97 97 92 88 90 87 82 78 76 76 71 72 69 72 76 77 75 72 73 69 57 39 27 36 46 47 49 53 56 56 51
121 113 118 119 122 124 126 126 121 112 110 108 107 101 102 101 100 98 94 93 88 84 86 87 82 77 77 79 80 77 75 75 80 73 65 48 41 41 46 49 47 56 58 60 60
124 121 117 123 122 128 131 131 121 115 111 113 112 108 105 102 104 102 100 96 94 89 89 90 89 85 83 81 79 78 79 80 79 76 72 55 48 49 53 54 54 56 58 64 66
136 132 126 127 125 131 130 124 125 119 118 117 118 113 106 107 108 102 101 96 94 98 101 96 93 88 88 84 84 88 87 85 84 82 76 67 52 55 55 54 57 63 63 64 66
131 138 135 134 131 128 125 122 124 126 126 124 121 115 110 110 109 107 99 95 99 101 103 103 104 96 91 89 88 88 86 87 86 81 79 75 54 56 59 57 59 62 65 66 63
120 126 135 141 137 134 126 123 127 127 127 128 125 119 116 116 113 107 107 104 102 101 101 102 105 100 96 93 90 87 85 84 84 83 77 80 58 59 62 63 64 69 69 65 64
115 117 128 136 134 124 126 126 127 123 127 125 125 125 126 124 117 113 110 107 108 107 106 105 105 101 96 96 95 91 90 91 93 90 78 77 65 65 67 70 72 72 72 71 70
111 109 116 127 131 128 127 124 125 126 121 120 122 124 125 124 120 121 111 111 108 103 106 107 106 105 96 97 97 93 93 93 91 83 91 70 81 68 73 75 74 77 78 75 70
106 107 113 116 124 131 130 126 128 122 122 119 121 119 121 121 118 115 116 119 115 115 114 109 103 104 99 94 96 99 96 91 88 88 89 78 82 71 77 85 83 82 77 75 76
106 107 113 113 118 126 127 125 129 130 128 124 120 124 125 120 122 120 120 119 119 120 119 122 117 114 107 102 109 109 89 91 97 94 94 93 80 84 86 87 84 81 80 79 77
Wind_Direction
215 213 215 216 219 222 225 225 223 224 226 228 235 240 243 250 252 252 252 253 256 258 261 264 266 267 266 266 270 269 272 275 271 270 276 282 282 278 282 280 274 272 268 268 265
218 218 215 216 217 220 222 225 225 226 227 227 231 239 245 245 244 248 252 254 255 256 258 259 265 267 270 270 269 272 276 280 280 279 276 279 285 283 277 282 275 277 274 269 266
223 220 220 218 217 219 220 222 223 224 225 228 235 236 237 239 244 249 248 252 254 258 259 259 259 262 268 270 275 275 275 279 282 281 282 281 282 284 284 275 277 276 276 274 269
224 225 222 222 220 220 221 222 222 225 227 228 230 233 235 237 240 246 250 253 254 255 258 260 260 263 265 266 270 278 277 277 278 280 278 275 277 279 283 275 274 277 275 273 274
228 226 224 226 224 223 223 222 223 223 227 229 230 232 233 234 238 243 246 251 252 254 258 260 260 259 261 265 269 271 274 276 278 278 275 275 276 281 282 275 271 275 278 275 275
225 230 229 224 226 227 226 226 225 224 226 228 230 230 231 232 237 243 244 247 250 253 258 258 258 259 259 261 267 267 271 273 277 275 275 277 277 283 281 278 278 273 274 279 278
225 227 231 231 227 225 228 230 228 226 226 227 229 230 233 233 235 239 242 246 248 252 255 259 258 261 260 258 262 262 266 271 275 274 274 278 274 276 279 283 281 281 276 273 275
216 225 229 231 233 231 227 229 231 230 229 229 229 230 233 234 236 236 241 243 246 248 250 253 258 262 263 259 260 261 264 270 273 270 275 276 277 277 277 278 278 277 279 279 274
221 217 228 232 232 235 233 230 229 231 233 232 231 231 232 233 235 237 238 241 245 248 252 252 257 259 260 261 258 258 265 266 267 266 268 274 277 276 274 276 275 275 278 280 280
225 222 215 227 229 233 235 235 232 231 230 233 233 232 232 233 234 236 239 241 244 247 249 251 252 257 258 256 261 262 259 261 264 263 263 268 274 274 276 276 275 278 280 277 275
226 226 225 217 225 231 232 236 236 235 233 231 232 232 233 235 235 236 239 240 243 246 246 248 251 252 253 258 259 258 257 257 256 259 261 263 270 275 273 273 275 276 276 274 276
223 226 228 226 223 218 232 231 236 237 236 236 235 234 234 236 236 236 238 238 241 243 247 251 252 253 257 256 260 256 251 256 257 258 257 263 265 272 276 273 273 271 272 276 279
225 228 230 230 228 225 223 226 229 232 236 237 236 237 237 237 239 237 237 240 243 245 246 249 250 255 258 255 253 252 253 253 256 259 259 258 265 276 273 273 273 269 275 279 281
227 229 230 229 230 229 227 227 219 231 229 233 237 234 238 238 239 243 242 242 243 245 247 246 249 250 253 254 254 254 255 254 257 257 259 260 256 265 266 271 272 273 274 277 280
230 228 229 229 230 232 232 233 233 224 224 228 233 232 238 239 239 243 244 242 242 244 245 245 248 250 253 255 255 254 255 256 257 259 257 266 256 248 262 267 272 276 278 278 276
229 229 229 229 230 231 232 235 234 235 236 222 228 232 232 235 235 238 243 243 244 245 245 246 245 248 247 249 254 256 256 257 257 259 262 258 263 256 254 264 272 277 279 280 280
230 230 230 230 230 231 232 233 236 234 232 233 230 227 233 233 236 236 239 240 240 241 242 245 240 239 244 248 251 253 253 254 257 261 258 256 264 266 269 269 274 282 281 278 277
232 231 230 231 233 233 232 232 234 235 234 232 234 237 236 230 232 236 237 240 243 243 239 238 237 239 240 243 246 251 254 257 258 259 264 266 269 264 269 267 273 278 281 281 281
234 231 231 232 233 234 233 233 233 234 236 235 233 232 236 240 239 233 234 236 239 242 244 242 241 239 241 243 247 251 256 259 262 264 265 266 265 261 267 266 266 271 275 279 281
235 235 233 234 234 236 236 235 234 234 234 237 236 235 234 238 241 242 242 241 239 240 242 244 244 244 244 248 252 256 256 258 262 265 266 267 267 266 263 268 272 273 276 279 282
235 238 236 236 237 237 238 240 236 234 235 235 237 237 236 239 239 242 245 244 246 247 246 246 249 249 251 254 255 257 259 262 265 267 270 269 265 260 263 263 271 277 276 276 278
236 236 235 236 237 239 242 242 240 237 237 239 237 238 236 237 238 240 242 246 247 247 249 250 250 250 252 254 256 260 263 266 268 268 266 267 265 265 268 268 269 270 273 275 275
236 236 233 238 241 240 242 243 240 241 238 239 240 240 241 237 238 241 241 242 244 249 252 253 254 253 253 256 259 261 261 261 262 262 264 267 273 267 267 266 269 271 273 276 276
236 235 234 237 241 239 239 240 242 241 242 242 242 242 243 244 242 241 242 242 244 246 247 249 252 255 256 256 256 257 259 261 263 265 271 271 268 262 263 269 272 274 274 274 277
236 236 235 236 239 242 238 236 239 242 243 244 244 243 245 246 246 241 240 240 241 242 245 249 252 254 253 254 256 257 258 258 262 266 266 267 265 265 269 269 268 269 274 278 278
236 236 237 236 237 239 238 238 239 240 241 242 244 247 248 247 248 246 246 241 240 240 244 245 247 249 251 254 256 256 254 257 261 262 264 263 262 269 268 268 272 275 274 272 272
237 234 235 236 236 238 239 238 238 238 239 240 242 243 248 250 250 249 248 247 246 243 245 246 248 250 250 251 252 252 257 259 258 260 263 262 266 264 270 271 269 268 272 273 271
Height
10713 10717 10725 10731 10738 10744 10749 10755 10760 10764 10767 10771 10774 10778 10782 10785 10788 10791 10793 10795 10796 10798 10798 10798 10798 10799 10799 10799 10800 10799 10798 10798 10800 10801 10800 10798 10799 10800 10799 10800 10800 10799 10801 10801 10802
10705 10711 10714 10720 10726 10733 10740 10746 10752 10756 10760 10764 10768 10771 10775 10779 10782 10784 10786 10789 10791 10792 10793 10793 10793 10794 10794 10795 10795 10795 10795 10793 10794 10795 10798 10796 10794 10795 10798 10795 10796 10796 10798 10798 10798
10697 10701 10708 10712 10716 10722 10729 10736 10743 10748 10752 10756 10761 10765 10768 10771 10775 10777 10780 10783 10785 10786 10787 10788 10789 10789 10789 10790 10790 10791 10792 10791 10790 10791 10792 10792 10790 10791 10794 10794 10792 10793 10793 10794 10795
10685 10693 10697 10703 10708 10713 10719 10726 10732 10739 10743 10748 10753 10757 10761 10764 10767 10770 10773 10776 10778 10780 10782 10783 10785 10785 10785 10786 10786 10786 10787 10787 10786 10786 10788 10788 10787 10787 10789 10789 10788 10789 10790 10790 10789
10673 10680 10686 10694 10699 10704 10710 10715 10722 10729 10734 10739 10744 10748 10753 10757 10760 10763 10766 10769 10771 10773 10775 10778 10780 10780 10780 10781 10781 10781 10782 10782 10783 10782 10782 10783 10783 10784 10786 10783 10784 10784 10784 10785 10785
10658 10668 10676 10679 10688 10694 10700 10706 10712 10718 10724 10729 10734 10739 10743 10748 10752 10755 10759 10761 10764 10767 10769 10772 10773 10773 10775 10776 10776 10776 10776 10777 10778 10778 10777 10778 10777 10779 10778 10778 10778 10779 10779 10778 10778
10644 10654 10662 10671 10675 10680 10689 10696 10702 10708 10713 10718 10724 10729 10735 10740 10743 10746 10750 10753 10757 10759 10763 10765 10766 10767 10769 10771 10771 10771 10771 10772 10773 10772 10772 10773 10771 10775 10773 10774 10773 10772 10774 10774 10773
10622 10637 10647 10656 10665 10671 10675 10683 10691 10697 10702 10708 10713 10718 10724 10730 10733 10737 10741 10745 10748 10751 10754 10757 10759 10760 10761 10763 10763 10764 10766 10766 10766 10766 10767 10767 10764 10769 10768 10768 10768 10767 10767 10767 10768
10615 10617 10631 10640 10649 10657 10665 10671 10676 10683 10690 10696 10702 10708 10713 10719 10722 10727 10731 10735 10740 10743 10746 10749 10752 10753 10753 10753 10754 10756 10761 10759 10758 10760 10762 10762 10757 10763 10762 10762 10759 10759 10761 10761 10761
10599 10606 10606 10623 10631 10641 10650 10658 10663 10670 10675 10684 10690 10697 10703 10706 10712 10717 10721 10726 10730 10733 10738 10740 10744 10746 10743 10741 10747 10752 10751 10750 10749 10751 10756 10756 10752 10755 10756 10755 10752 10753 10754 10754 10754
10581 10591 10600 10601 10613 10624 10634 10642 10648 10657 10664 10668 10678 10685 10689 10695 10703 10708 10712 10716 10720 10725 10728 10731 10737 10734 10728 10737 10740 10740 10743 10742 10737 10744 10751 10750 10749 10747 10750 10747 10746 10746 10746 10746 10748
10564 10574 10583 10591 10597 10599 10616 10623 10632 10641 10648 10657 10666 10674 10678 10683 10689 10696 10700 10704 10708 10713 10718 10724 10728 10717 10724 10727 10730 10732 10732 10732 10729 10735 10745 10743 10746 10743 10742 10741 10738 10737 10737 10740 10742
10548 10558 10567 10576 10584 10589 10595 10601 10610 10619 10632 10641 10651 10661 10665 10670 10677 10685 10689 10694 10698 10703 10706 10710 10713 10711 10714 10714 10715 10719 10723 10720 10723 10726 10736 10739 10744 10739 10733 10732 10731 10728 10729 10733 10734
10526 10538 10547 10558 10569 10575 10580 10582 10582 10602 10612 10630 10637 10644 10651 10658 10668 10674 10679 10683 10687 10691 10690 10700 10702 10700 10697 10705 10702 10710 10707 10710 10712 10716 10727 10733 10743 10737 10727 10723 10719 10717 10725 10725 10726
10506 10516 10525 10539 10550 10561 10563 10570 10580 10581 10581 10613 10616 10635 10640 10643 10659 10655 10658 10662 10672 10671 10674 10691 10688 10690 10693 10692 10686 10698 10694 10696 10700 10706 10722 10729 10728 10735 10723 10714 10706 10710 10715 10718 10720
10483 10493 10504 10515 10529 10536 10544 10550 10558 10560 10572 10590 10606 10613 10620 10627 10636 10640 10637 10645 10655 10656 10664 10674 10676 10676 10681 10677 10674 10681 10683 10682 10686 10695 10717 10719 10721 10732 10718 10708 10698 10700 10708 10709 10709
10461 10470 10485 10495 10508 10511 10518 10528 10527 10528 10568 10585 10598 10597 10601 10607 10615 10620 10623 10627 10633 10636 10652 10652 10659 10661 10662 10664 10663 10665 10664 10665 10672 10683 10703 10707 10718 10722 10707 10702 10694 10689 10693 10696 10697
10440 10451 10463 10475 10481 10486 10493 10498 10500 10531 10548 10571 10581 10587 10588 10585 10595 10603 10607 10613 10621 10628 10633 10632 10640 10644 10649 10647 10644 10643 10648 10657 10660 10667 10683 10699 10710 10706 10696 10693 10691 10684 10677 10678 10685
10418 10428 10444 10451 10455 10459 10462 10465 10489 10525 10531 10543 10553 10560 10567 10572 10578 10581 10585 10597 10604 10609 10610 10614 10622 10628 10630 10629 10628 10641 10644 10646 10641 10656 10667 10687 10696 10696 10689 10682 10685 10677 10671 10666 10667
10394 10408 10427 10419 10428 10430 10431 10451 10480 10502 10514 10514 10527 10537 10552 10558 10559 10568 10574 10593 10594 10592 10588 10591 10603 10613 10618 10620 10625 10628 10630 10629 10632 10640 10649 10676 10681 10681 10676 10674 10672 10668 10666 10658 10657
10370 10380 10399 10395 10400 10403 10413 10436 10466 10482 10482 10487 10498 10514 10531 10539 10545 10552 10562 10577 10579 10579 10571 10578 10586 10602 10604 10616 10615 10609 10614 10619 10620 10628 10637 10653 10667 10662 10663 10665 10662 10653 10651 10648 10647
10340 10357 10369 10364 10372 10387 10404 10430 10441 10453 10457 10466 10477 10492 10510 10519 10524 10533 10550 10556 10556 10555 10556 10563 10563 10582 10592 10594 10596 10599 10605 10606 10606 10613 10613 10623 10656 10649 10647 10648 10645 10642 10636 10635 10636
10314 10330 10341 10331 10339 10370 10390 10394 10408 10420 10435 10442 10455 10471 10483 10492 10500 10513 10527 10539 10534 10538 10543 10543 10541 10558 10570 10581 10587 10586 10587 10584 10584 10587 10601 10602 10643 10634 10630 10629 10627 10624 10623 10626 10626
10286 10302 10312 10314 10327 10346 10367 10376 10376 10398 10405 10418 10432 10444 10449 10460 10481 10500 10512 10516 10513 10520 10520 10517 10520 10539 10557 10557 10557 10563 10565 10565 10563 10571 10599 10598 10617 10615 10611 10608 10608 10606 10606 10610 10612
10260 10284 10289 10293 10309 10321 10336 10353 10359 10368 10387 10395 10404 10414 10428 10435 10451 10469 10484 10491 10496 10501 10495 10497 10506 10512 10531 10533 10537 10545 10546 10545 10552 10574 10559 10601 10579 10605 10591 10590 10589 10587 10588 10592 10592
10238 10256 10261 10274 10284 10283 10301 10322 10338 10349 10359 10373 10378 10397 10398 10406 10424 10442 10448 10460 10469 10473 10471 10477 10487 10487 10505 10518 10516 10515 10520 10537 10547 10547 10544 10570 10564 10580 10570 10560 10567 10569 10572 10573 10573
10211 10228 10230 10247 10253 10253 10276 10303 10313 10321 10329 10348 10365 10362 10368 10389 10392 10403 10415 10427 10439 10450 10450 10454 10466 10472 10487 10497 10479 10475 10531 10528 10514 10521 10525 10532 10565 10547 10551 10547 10545 10546 10552 10553 10552